IW9GDC-13 Weather Reports


Display with metric or nautical units.
time (UTC)temp
F
wind
direction
speed
MPH
gust
MPH
rain 1hr
in
rain 24hr
in
rain mn
in
humidity
%
barometer
mb
20260906043556 81 0 4.0 6.0 0.00 0.00 0.00 67 1019.3
20260906043016 81 315 7.0 11.0 0.00 0.00 0.00 67 1019.2
20260906042516 81 315 8.0 13.0 0.00 0.00 0.00 65 1019.3
20260906042016 81 293 8.0 14.0 0.00 0.00 0.00 65 1019.2
20260906041516 81 315 8.0 13.0 0.00 0.00 0.00 64 1019.2
20260906041017 81 293 9.0 14.0 0.00 0.00 0.00 64 1019.2
20260906040516 81 293 7.0 15.0 0.00 0.00 0.00 61 1019.2
20260906040016 81 315 3.0 11.0 0.00 0.00 0.00 63 1019.1
20260906035516 81 270 3.0 9.0 0.00 0.00 0.00 62 1019.1
20260906035036 81 315 3.0 10.0 0.00 0.00 0.00 62 1019.1
20260906034516 81 315 3.0 7.0 0.00 0.00 0.00 62 1019.1
20260906034016 81 338 3.0 7.0 0.00 0.00 0.00 62 1019.1
20260906033516 81 338 4.0 8.0 0.00 0.00 0.00 61 1019.1
20260906033016 81 338 2.0 8.0 0.00 0.00 0.00 61 1019.1
20260906032536 81 315 3.0 9.0 0.00 0.00 0.00 61 1019.0
20260906032038 81 293 3.0 7.0 0.00 0.00 0.00 61 1019.1
20260906031516 81 45 1.0 5.0 0.00 0.00 0.00 62 1019.0
20260906031016 81 315 1.0 4.0 0.00 0.00 0.00 64 1019.0
20260906030536 81 0 4.0 10.0 0.00 0.00 0.00 64 1019.1
20260906030016 81 338 2.0 6.0 0.00 0.00 0.00 63 1019.1
20260906025536 81 315 2.0 4.0 0.00 0.00 0.00 61 1019.1
20260906025036 81 315 2.0 5.0 0.00 0.00 0.00 62 1019.1
20260906024516 81 338 2.0 5.0 0.00 0.00 0.00 61 1019.2
20260906024016 81 338 3.0 6.0 0.00 0.00 0.00 61 1019.3
20260906023516 82 270 5.0 10.0 0.00 0.00 0.00 60 1019.4
20260906023016 82 315 5.0 12.0 0.00 0.00 0.00 61 1019.4
20260906022516 82 315 4.0 8.0 0.00 0.00 0.00 62 1019.3
20260906022016 82 315 5.0 11.0 0.00 0.00 0.00 61 1019.4
20260906021516 82 293 5.0 12.0 0.00 0.00 0.00 60 1019.4
20260906021016 82 270 5.0 13.0 0.00 0.00 0.00 59 1019.4
20260906020538 82 293 5.0 17.0 0.00 0.00 0.00 59 1019.4
20260906020016 82 315 4.0 9.0 0.00 0.00 0.00 59 1019.3
20260906015516 82 293 2.0 7.0 0.00 0.00 0.00 58 1019.3
20260906015036 82 338 2.0 8.0 0.00 0.00 0.00 57 1019.3
20260906014516 82 293 1.0 4.0 0.00 0.00 0.00 57 1019.3
20260906014036 82 0.0 2.0 0.00 0.00 0.00 56 1019.3
20260906013516 83 270 1.0 5.0 0.00 0.00 0.00 55 1019.3
20260906013016 83 293 3.0 7.0 0.00 0.00 0.00 52 1019.2
20260906012516 83 293 2.0 8.0 0.00 0.00 0.00 51 1019.2
20260906012016 83 45 2.0 5.0 0.00 0.00 0.00 52 1019.3
20260906011516 83 180 1.0 4.0 0.00 0.00 0.00 51 1019.2
20260906011036 83 0 2.0 9.0 0.00 0.00 0.00 50 1019.3
20260906010516 83 45 1.0 5.0 0.00 0.00 0.00 50 1019.1
20260906010016 82 248 2.0 6.0 0.00 0.00 0.00 52 1019.2
20260906005515 82 338 3.0 8.0 0.00 0.00 0.00 52 1019.1
20260906005016 82 248 1.0 2.0 0.00 0.00 0.00 55 1019.1
20260906004516 82 0 3.0 9.0 0.00 0.00 0.00 56 1019.1
20260906004035 82 270 1.0 5.0 0.00 0.00 0.00 55 1019.1
20260906003516 82 0 2.0 4.0 0.00 0.00 0.00 54 1019.2
20260906003056 82 45 1.0 5.0 0.00 0.00 0.00 58 1019.2
20260906002515 82 0 2.0 4.0 0.00 0.00 0.00 57 1019.2
20260906002036 82 23 2.0 6.0 0.00 0.00 0.00 58 1019.2
20260906001516 82 338 4.0 6.0 0.00 0.00 0.00 58 1019.3
20260906001016 82 338 2.0 5.0 0.00 0.00 0.00 57 1019.3
20260906000516 82 0 4.0 9.0 0.00 0.00 0.00 57 1019.3
20260906000016 82 338 3.0 8.0 0.00 0.00 0.00 60 1019.3
20260905235515 82 315 4.0 8.0 0.00 0.00 0.00 63 1019.3
20260905235016 81 338 2.0 6.0 0.00 0.00 0.00 64 1019.4
20260905234516 81 68 2.0 5.0 0.00 0.00 0.00 67 1019.5
20260905234015 82 113 1.0 5.0 0.00 0.00 0.00 67 1019.5
20260905233515 82 338 2.0 6.0 0.00 0.00 0.00 66 1019.6
20260905233036 82 315 2.0 7.0 0.00 0.00 0.00 65 1019.6
20260905232516 82 338 3.0 5.0 0.00 0.00 0.00 65 1019.8
20260905232016 82 315 3.0 8.0 0.00 0.00 0.00 63 1019.7
20260905231535 81 293 2.0 7.0 0.00 0.00 0.00 65 1019.7
20260905231015 81 338 2.0 3.0 0.00 0.00 0.00 67 1019.8
20260905230516 81 338 2.0 4.0 0.00 0.00 0.00 68 1019.9
20260905230015 81 0 2.0 5.0 0.00 0.00 0.00 68 1019.9
20260905225516 81 0 2.0 3.0 0.00 0.00 0.00 68 1019.8
20260905225016 81 0 3.0 5.0 0.00 0.00 0.00 68 1019.8
20260905224515 81 0 2.0 7.0 0.00 0.00 0.00 70 1019.8
20260905224015 81 338 2.0 6.0 0.00 0.00 0.00 72 1019.8
20260905223537 81 0 3.0 8.0 0.00 0.00 0.00 72 1019.8
20260905223015 80 0 5.0 9.0 0.00 0.00 0.00 76 1019.8
20260905222517 80 315 4.0 9.0 0.00 0.00 0.00 76 1019.8
20260905222018 80 338 4.0 8.0 0.00 0.00 0.00 76 1019.8
20260905221517 81 293 3.0 8.0 0.00 0.00 0.00 76 1019.9
20260905221017 81 293 3.0 8.0 0.00 0.00 0.00 76 1019.8
20260905220515 81 248 2.0 4.0 0.00 0.00 0.00 76 1019.8
20260905220019 81 270 2.0 6.0 0.00 0.00 0.00 75 1019.9
20260905215517 81 135 2.0 7.0 0.00 0.00 0.00 76 1019.8
20260905215037 81 203 2.0 4.0 0.00 0.00 0.00 76 1020.0
20260905214517 81 180 1.0 3.0 0.00 0.00 0.00 75 1019.9
20260905214017 81 158 2.0 4.0 0.00 0.00 0.00 75 1020.0
20260905213517 81 113 2.0 5.0 0.00 0.00 0.00 75 1020.0
20260905213017 81 180 2.0 5.0 0.00 0.00 0.00 75 1020.0
20260905212517 81 113 2.0 6.0 0.00 0.00 0.00 75 1019.9
20260905212017 81 180 3.0 7.0 0.00 0.00 0.00 75 1020.0
20260905211537 81 180 2.0 5.0 0.00 0.00 0.00 75 1020.1
20260905211037 81 203 1.0 5.0 0.00 0.00 0.00 75 1019.8
20260905210517 81 180 2.0 6.0 0.00 0.00 0.00 75 1020.0
20260905210017 81 158 2.0 4.0 0.00 0.00 0.00 75 1019.9
20260905205517 81 90 3.0 8.0 0.00 0.00 0.00 75 1019.9
20260905205017 81 135 2.0 4.0 0.00 0.00 0.00 74 1019.8
20260905204517 81 113 3.0 9.0 0.00 0.00 0.00 74 1019.8
20260905204017 81 203 2.0 9.0 0.00 0.00 0.00 74 1019.9
20260905203537 81 135 2.0 4.0 0.00 0.00 0.00 74 1019.9
20260905203038 81 90 3.0 9.0 0.00 0.00 0.00 74 1019.9
20260905202517 81 315 3.0 12.0 0.00 0.00 0.00 74 1020.0
20260905202017 81 180 3.0 7.0 0.00 0.00 0.00 74 1020.0
20260905201517 81 113 2.0 7.0 0.00 0.00 0.00 74 1020.0
20260905201017 81 90 4.0 10.0 0.00 0.00 0.00 74 1020.0
20260905200517 81 203 2.0 7.0 0.00 0.00 0.00 74 1020.1
20260905200017 81 90 3.0 6.0 0.00 0.00 0.00 74 1020.0
20260905195517 82 90 3.0 9.0 0.00 0.00 0.00 74 1020.0
20260905195017 82 68 2.0 8.0 0.00 0.00 0.00 74 1020.0
20260905194517 82 68 2.0 7.0 0.00 0.00 0.00 74 1020.0
20260905194036 82 90 2.0 7.0 0.00 0.00 0.00 73 1020.0
20260905193516 82 248 2.0 6.0 0.00 0.00 0.00 73 1019.9
20260905193016 82 180 2.0 4.0 0.00 0.00 0.00 73 1019.9
20260905192517 82 293 3.0 8.0 0.00 0.00 0.00 73 1019.9
20260905192017 82 315 3.0 9.0 0.00 0.00 0.00 73 1019.8
20260905191516 82 315 4.0 10.0 0.00 0.00 0.00 73 1019.8
20260905191037 82 293 3.0 9.0 0.00 0.00 0.00 72 1019.8
20260905190516 82 0 4.0 10.0 0.00 0.00 0.00 72 1019.6
20260905190017 82 270 3.0 10.0 0.00 0.00 0.00 72 1019.7
20260905185517 82 293 2.0 4.0 0.00 0.00 0.00 71 1019.6
20260905185036 82 293 3.0 6.0 0.00 0.00 0.00 71 1019.6
20260905184537 82 315 3.0 10.0 0.00 0.00 0.00 71 1019.6
20260905184016 82 293 4.0 10.0 0.00 0.00 0.00 70 1019.6
20260905183517 82 0 2.0 8.0 0.00 0.00 0.00 70 1019.6
20260905183037 82 338 3.0 8.0 0.00 0.00 0.00 69 1019.4
20260905182517 82 225 3.0 7.0 0.00 0.00 0.00 68 1019.3
20260905182016 82 315 3.0 8.0 0.00 0.00 0.00 67 1019.3
20260905181517 83 68 3.0 9.0 0.00 0.00 0.00 67 1019.2
20260905181017 83 23 1.0 5.0 0.00 0.00 0.00 67 1019.2
20260905180516 83 225 2.0 9.0 0.00 0.00 0.00 67 1019.2
20260905180036 83 248 2.0 4.0 0.00 0.00 0.00 66 1019.2
20260905175516 83 315 3.0 6.0 0.00 0.00 0.00 65 1019.1
20260905175016 83 270 2.0 3.0 0.00 0.00 0.00 65 1019.1
20260905174516 83 293 3.0 6.0 0.00 0.00 0.00 63 1019.1
20260905174016 84 0 4.0 10.0 0.00 0.00 0.00 63 1019.1
20260905173536 84 315 3.0 9.0 0.00 0.00 0.00 62 1019.2
20260905173016 84 0 2.0 5.0 0.00 0.00 0.00 61 1019.1
20260905172516 84 338 2.0 8.0 0.00 0.00 0.00 62 1019.1
20260905172016 84 293 2.0 4.0 0.00 0.00 0.00 62 1019.1
20260905171536 84 270 2.0 4.0 0.00 0.00 0.00 62 1019.0
20260905171016 84 45 3.0 7.0 0.00 0.00 0.00 62 1018.9
20260905170516 85 225 2.0 9.0 0.00 0.00 0.00 61 1018.9
20260905170017 85 270 2.0 4.0 0.00 0.00 0.00 61 1018.9
20260905165516 85 23 3.0 9.0 0.00 0.00 0.00 58 1018.9
20260905165016 85 0 4.0 9.0 0.00 0.00 0.00 59 1018.8
20260905164516 85 23 5.0 10.0 0.00 0.00 0.00 56 1018.8
20260905164016 86 315 6.0 11.0 0.00 0.00 0.00 56 1018.9
20260905163516 86 23 4.0 14.0 0.00 0.00 0.00 54 1018.9
20260905163016 86 338 3.0 6.0 0.00 0.00 0.00 54 1018.9
20260905162516 87 338 4.0 9.0 0.00 0.00 0.00 53 1019.0
20260905162056 87 315 4.0 9.0 0.00 0.00 0.00 50 1019.0
20260905161516 88 315 6.0 11.0 0.00 0.00 0.00 50 1019.0
20260905161016 88 315 8.0 13.0 0.00 0.00 0.00 48 1019.0
20260905160516 89 315 6.0 13.0 0.00 0.00 0.00 46 1019.0
20260905160016 89 270 3.0 7.0 0.00 0.00 0.00 47 1018.9
20260905155516 89 293 7.0 14.0 0.00 0.00 0.00 46 1018.9
20260905155016 89 315 5.0 11.0 0.00 0.00 0.00 46 1018.9
20260905154516 89 315 5.0 14.0 0.00 0.00 0.00 45 1018.9
20260905154016 90 315 6.0 11.0 0.00 0.00 0.00 45 1018.9
20260905153516 90 270 6.0 10.0 0.00 0.00 0.00 44 1018.9
20260905153016 90 315 4.0 8.0 0.00 0.00 0.00 44 1018.9
20260905152536 90 270 7.0 12.0 0.00 0.00 0.00 45 1018.9
20260905152016 90 270 5.0 12.0 0.00 0.00 0.00 46 1018.9
20260905151516 90 315 5.0 9.0 0.00 0.00 0.00 47 1018.9
20260905151016 91 270 6.0 13.0 0.00 0.00 0.00 47 1018.7
20260905150518 91 0 4.0 10.0 0.00 0.00 0.00 45 1018.8
20260905150016 92 23 3.0 8.0 0.00 0.00 0.00 45 1018.8
20260905145516 92 248 4.0 9.0 0.00 0.00 0.00 45 1018.8
20260905145016 92 270 5.0 13.0 0.00 0.00 0.00 43 1018.8
20260905144516 92 23 5.0 13.0 0.00 0.00 0.00 42 1018.8
20260905144036 93 135 3.0 7.0 0.00 0.00 0.00 40 1018.8
20260905143516 93 270 4.0 10.0 0.00 0.00 0.00 40 1018.8
20260905143016 93 270 3.0 9.0 0.00 0.00 0.00 39 1018.8
20260905142516 93 315 3.0 9.0 0.00 0.00 0.00 40 1018.9
20260905142016 93 293 2.0 9.0 0.00 0.00 0.00 37 1018.9
20260905141516 93 0 5.0 10.0 0.00 0.00 0.00 38 1018.9
20260905141016 93 203 3.0 11.0 0.00 0.00 0.00 37 1019.0
20260905140516 92 315 4.0 12.0 0.00 0.00 0.00 39 1018.9
20260905140016 92 315 5.0 13.0 0.00 0.00 0.00 42 1018.9
20260905135516 93 23 3.0 8.0 0.00 0.00 0.00 41 1019.0
20260905135016 92 68 3.0 7.0 0.00 0.00 0.00 45 1019.0
20260905134516 92 158 4.0 14.0 0.00 0.00 0.00 46 1019.0
20260905134016 93 90 3.0 9.0 0.00 0.00 0.00 47 1019.1
20260905133516 93 293 4.0 10.0 0.00 0.00 0.00 35 1019.0
20260905133015 93 293 5.0 13.0 0.00 0.00 0.00 38 1019.0
20260905132516 93 293 5.0 12.0 0.00 0.00 0.00 35 1019.2
20260905132016 93 270 4.0 11.0 0.00 0.00 0.00 35 1019.2
20260905131515 92 270 6.0 14.0 0.00 0.00 0.00 34 1019.2
20260905131015 93 270 8.0 14.0 0.00 0.00 0.00 34 1019.2
20260905130516 93 270 8.0 16.0 0.00 0.00 0.00 33 1019.4
20260905130016 93 293 5.0 14.0 0.00 0.00 0.00 33 1019.3
20260905125515 93 315 7.0 13.0 0.00 0.00 0.00 32 1019.4
20260905125035 93 315 9.0 16.0 0.00 0.00 0.00 32 1019.3
20260905124515 93 270 6.0 13.0 0.00 0.00 0.00 34 1019.4
20260905124015 93 0 6.0 15.0 0.00 0.00 0.00 33 1019.4
20260905123556 94 293 6.0 16.0 0.00 0.00 0.00 33 1019.5
20260905123015 93 338 3.0 11.0 0.00 0.00 0.00 34 1019.3
20260905122515 93 293 6.0 13.0 0.00 0.00 0.00 33 1019.5
20260905122015 93 270 6.0 13.0 0.00 0.00 0.00 35 1019.6
20260905121516 93 293 5.0 10.0 0.00 0.00 0.00 36 1019.5
20260905121015 92 293 5.0 14.0 0.00 0.00 0.00 36 1019.5
20260905120516 92 293 5.0 12.0 0.00 0.00 0.00 35 1019.7
20260905120015 92 270 9.0 14.0 0.00 0.00 0.00 34 1019.6
20260905115517 92 270 8.0 16.0 0.00 0.00 0.00 35 1019.7
20260905115015 92 270 5.0 13.0 0.00 0.00 0.00 35 1019.6
20260905114515 92 270 8.0 15.0 0.00 0.00 0.00 36 1019.6
20260905114015 92 270 5.0 18.0 0.00 0.00 0.00 35 1019.6
20260905113515 92 270 7.0 15.0 0.00 0.00 0.00 36 1019.6
20260905113015 92 0 7.0 14.0 0.00 0.00 0.00 38 1019.8
20260905112557 91 338 7.0 14.0 0.00 0.00 0.00 40 1019.7
20260905112017 92 315 8.0 15.0 0.00 0.00 0.00 37 1019.7
20260905111517 92 338 5.0 16.0 0.00 0.00 0.00 39 1019.7
20260905111018 92 270 6.0 13.0 0.00 0.00 0.00 38 1019.7
20260905110557 92 293 5.0 13.0 0.00 0.00 0.00 36 1019.7
20260905110017 92 338 6.0 13.0 0.00 0.00 0.00 37 1019.6
20260905105537 92 338 7.0 14.0 0.00 0.00 0.00 36 1019.7
20260905105038 91 315 4.0 13.0 0.00 0.00 0.00 38 1019.6
20260905104517 91 23 4.0 9.0 0.00 0.00 0.00 41 1019.6
20260905104017 90 338 7.0 20.0 0.00 0.00 0.00 56 1019.6
20260905103517 89 338 5.0 13.0 0.00 0.00 0.00 56 1019.6
20260905103017 89 293 6.0 13.0 0.00 0.00 0.00 56 1019.7
20260905102517 89 270 4.0 12.0 0.00 0.00 0.00 56 1019.6
20260905102017 88 225 6.0 14.0 0.00 0.00 0.00 56 1019.6
20260905101517 88 225 5.0 13.0 0.00 0.00 0.00 57 1019.6
20260905101017 88 180 4.0 12.0 0.00 0.00 0.00 56 1019.7
20260905100519 88 68 6.0 17.0 0.00 0.00 0.00 56 1019.7
20260905100017 88 68 9.0 17.0 0.00 0.00 0.00 56 1019.3
20260905095517 88 68 9.0 19.0 0.00 0.00 0.00 56 1019.7
20260905095037 88 68 9.0 16.0 0.00 0.00 0.00 56 1019.6
20260905094517 89 90 6.0 15.0 0.00 0.00 0.00 55 1019.5
20260905094017 89 90 6.0 11.0 0.00 0.00 0.00 55 1019.6
20260905093517 88 90 6.0 14.0 0.00 0.00 0.00 56 1019.6
20260905093017 88 68 7.0 16.0 0.00 0.00 0.00 57 1019.5
20260905092517 87 68 10.0 22.0 0.00 0.00 0.00 58 1019.5
20260905092017 87 90 9.0 18.0 0.00 0.00 0.00 59 1019.5
20260905091537 87 68 10.0 20.0 0.00 0.00 0.00 58 1019.6
20260905091017 87 45 9.0 20.0 0.00 0.00 0.00 59 1019.7
20260905090517 87 68 9.0 20.0 0.00 0.00 0.00 59 1019.9
20260905090037 87 68 9.0 18.0 0.00 0.00 0.00 59 1019.8
20260905085537 87 68 8.0 15.0 0.00 0.00 0.00 59 1019.8
20260905085017 87 68 8.0 16.0 0.00 0.00 0.00 60 1019.9
20260905084557 86 68 9.0 14.0 0.00 0.00 0.00 62 1019.8
20260905084017 86 68 7.0 19.0 0.00 0.00 0.00 61 1019.8
20260905083517 86 68 7.0 16.0 0.00 0.00 0.00 63 1019.8
20260905083017 85 68 9.0 15.0 0.00 0.00 0.00 64 1019.7
20260905082517 85 68 10.0 15.0 0.00 0.00 0.00 64 1019.8
20260905082017 85 68 7.0 15.0 0.00 0.00 0.00 62 1019.8
20260905081517 86 68 7.0 11.0 0.00 0.00 0.00 62 1019.8
20260905081017 86 68 8.0 14.0 0.00 0.00 0.00 62 1019.8
20260905080517 86 68 7.0 14.0 0.00 0.00 0.00 62 1019.6
20260905080037 87 68 6.0 15.0 0.00 0.00 0.00 60 1019.6
20260905075517 87 68 5.0 14.0 0.00 0.00 0.00 58 1019.6
20260905075018 87 68 5.0 14.0 0.00 0.00 0.00 58 1019.5
20260905074537 87 90 5.0 12.0 0.00 0.00 0.00 59 1019.5
20260905074017 86 90 3.0 9.0 0.00 0.00 0.00 57 1019.5
20260905073537 86 338 3.0 9.0 0.00 0.00 0.00 59 1019.6
20260905073017 86 225 3.0 9.0 0.00 0.00 0.00 60 1019.6
20260905072516 86 68 5.0 11.0 0.00 0.00 0.00 59 1019.5
20260905072037 86 68 4.0 10.0 0.00 0.00 0.00 59 1019.5
20260905071517 86 135 3.0 6.0 0.00 0.00 0.00 60 1019.4
20260905071016 85 90 4.0 10.0 0.00 0.00 0.00 61 1019.4
20260905070516 85 293 4.0 13.0 0.00 0.00 0.00 61 1019.4
20260905070016 85 225 4.0 10.0 0.00 0.00 0.00 61 1019.4
20260905065516 85 180 2.0 11.0 0.00 0.00 0.00 62 1019.4
20260905065017 84 225 3.0 10.0 0.00 0.00 0.00 62 1019.3
20260905064516 84 293 2.0 5.0 0.00 0.00 0.00 63 1019.4
20260905064016 84 135 3.0 13.0 0.00 0.00 0.00 63 1019.3
20260905063516 84 338 6.0 13.0 0.00 0.00 0.00 63 1019.4
20260905063017 84 0 4.0 10.0 0.00 0.00 0.00 65 1019.4
20260905062516 83 293 3.0 9.0 0.00 0.00 0.00 65 1019.5
20260905062036 83 23 3.0 9.0 0.00 0.00 0.00 67 1019.5
20260905061556 83 315 3.0 9.0 0.00 0.00 0.00 68 1019.6
20260905061017 83 135 3.0 7.0 0.00 0.00 0.00 68 1019.5
20260905060516 83 45 3.0 8.0 0.00 0.00 0.00 68 1019.5
20260905060017 82 225 2.0 6.0 0.00 0.00 0.00 69 1019.4
20260905055516 82 203 2.0 5.0 0.00 0.00 0.00 70 1019.4
20260905055017 82 113 2.0 8.0 0.00 0.00 0.00 70 1019.4
20260905054516 82 315 3.0 6.0 0.00 0.00 0.00 70 1019.5
20260905054036 82 68 3.0 7.0 0.00 0.00 0.00 70 1019.4
20260905053537 82 180 2.0 4.0 0.00 0.00 0.00 69 1019.4
20260905053018 81 68 3.0 11.0 0.00 0.00 0.00 69 1019.3
20260905052516 81 90 3.0 8.0 0.00 0.00 0.00 69 1019.3
20260905052016 81 113 2.0 7.0 0.00 0.00 0.00 68 1019.3
20260905051516 81 68 3.0 10.0 0.00 0.00 0.00 67 1019.2
20260905051016 80 45 3.0 9.0 0.00 0.00 0.00 66 1019.2
20260905050516 79 68 2.0 6.0 0.00 0.00 0.00 65 1019.2
20260905050016 79 248 1.0 3.0 0.00 0.00 0.00 62 1019.2
20260905045516 79 248 1.0 4.0 0.00 0.00 0.00 61 1019.1
20260905045016 78 270 1.0 3.0 0.00 0.00 0.00 61 1019.1
20260905044516 78 0.0 3.0 0.00 0.00 0.00 59 1019.1
20260905044016 78 270 2.0 6.0 0.00 0.00 0.00 59 1019.0